Location: Carrer del Canonge
(41.4901°N, 2.2931°E)
Time: 14:18:06
(UTC+00:00)

CENTAUR R/B - Pass Details

Date: 18 September 2020
Orbit: 753 x 1435 km, 63.5° (Epoch: 26 October)

Event Time Altitude Azimuth Distance (km) Brightness Sun altitude
Rises 21:15:03 0° 322° (NW) 4,216 6.8 -35.3°
Reaches altitude 10° 21:17:46 10° 320° (NW) 3,322 6.0 -35.7°
Enters shadow 21:25:43 65° 249° (WSW) 1,519 3.4 -36.8°
